Preview of NWS' New Version of Forecast
This preview is not operational and should not be used for support decisions.

Regional Weather Roundup (RWR)

Issued by National Weather Service (NWS)

                            
000
ASUS46 KPQR 240910
RWROR 

OREGON REGIONAL WEATHER ROUNDUP
NATIONAL WEATHER SERVICE PORTLAND OR
200 AM PDT MON JUN 24 2019

NOTE: "FAIR" INDICATES FEW OR NO CLOUDS BELOW 12,000 FEET WITH
NO SIGNIFICANT WEATHER AND/OR OBSTRUCTIONS TO VISIBILITY.

ORZ001>013-241000-
NORTHWEST OREGON

  
CITY           SKY/WX    TMP DP  RH WIND       PRES   REMARKS
ASTORIA        CLOUDY    53  50  89 SW3       30.14S                  
TILLAMOOK      CLOUDY    50  46  87 CALM      30.16S                  
NEWPORT        CLEAR     50  46  87 CALM      30.16S                  
PORTLAND       MOCLDY    56  46  69 NW6       30.13S                  
VANCOUVER WA   PTCLDY    54  46  74 NW5       30.13S                  
SCAPPOOSE      CLEAR     50  44  80 CALM      30.12S                  
HILLSBORO      CLEAR     46  42  86 N3        30.13S                  
AURORA         CLOUDY    57  45  64 NE5       30.14S                  
MCMINNVILLE    CLOUDY    55  45  68 NW3       30.13S                  
SALEM          CLOUDY    55  44  66 N9        30.11F                  
CORVALLIS      CLEAR     52  47  83 NW7       30.13R                  
EUGENE         CLEAR     52  46  80 N8        30.11S                  
$$

ORZ021-028-241000-
SOUTHWEST OREGON

  
CITY           SKY/WX    TMP DP  RH WIND       PRES   REMARKS
NORTH BEND     CLEAR     53  50  89 N8        30.14F                  
BROOKINGS      CLEAR     51  47  86 E3        30.04S                  
ROSEBURG       CLEAR     59  48  67 NE3       30.08S                  
SEXTON SUMMIT  CLEAR     50  43  77 N7        30.10F                  
GRANTS PASS    FAIR      59  46  63 CALM      30.07F                  
MEDFORD        CLEAR     61  44  53 S6        30.03F                  
$$

ORZ014>016-041-241000-
COLUMBIA GORGE

  
CITY           SKY/WX    TMP DP  RH WIND       PRES   REMARKS
TROUTDALE      MOCLDY    55  46  71 VRB3      30.13S                  
HOOD RIVER     PTCLDY    54  45  71 W7        30.06S                  
THE DALLES     CLEAR     58  45  62 NW14G22   30.02F                  
$$

ORZ029>031-041-044-049-050-061>064-502-503-505>511-241000-
EASTERN OREGON

  
CITY           SKY/WX    TMP DP  RH WIND       PRES   REMARKS
MADRAS         CLEAR     45  39  81 SE3       30.08S                  
REDMOND        CLEAR     46  38  73 CALM      30.06F                  
BEND           CLEAR     46  39  76 CALM      30.07S                  
PRINEVILLE     CLEAR     43  37  81 S6        30.07S                  
KLAMATH FALLS  CLEAR     42  37  82 CALM      30.09F                  
LAKEVIEW       CLEAR     43  35  73 NW7       30.10S                  
HERMISTON      PTCLDY    58  43  57 SW12      29.99S                  
PENDLETON      CLEAR     55  40  56 S5        30.01R                  
JOHN DAY       CLEAR     49  37  64 W5        30.06S                  
MEACHAM        CLEAR     42  37  82 CALM      30.04F                  
LA GRANDE      CLEAR     51  40  65 NW8       30.03S                  
BAKER CITY     CLEAR     47  37  68 SW5       30.03S                  
BURNS          CLEAR     44  34  67 NW8       30.07S                  
ROME             N/A     49  30  48 SE5       30.03S                  
ONTARIO        CLEAR     59  37  44 NW6       29.99S                  
$$